Location: Gro�wechsungen
(51.4926°N, 10.6901°E)
Time: 10:19:36
(UTC+00:00)

NOSS 3-1 (C) - Pass Details

Date: 18 September 2020
Orbit: 743 x 1466 km, 63.4° (Epoch: 09 October)

Event Time Altitude Azimuth Distance (km) Brightness Sun altitude
Rises 17:45:28 0° 243° (WSW) 3,327 7.3 -4.2°
Reaches altitude 10° 17:47:48 10° 248° (WSW) 2,465 6.7 -4.5°
Maximum altitude 17:53:23 54° 326° (NNW) 1,131 4.2 -5.4°
Drops below altitude 10° 18:00:03 10° 44° (NE) 2,927 5.7 -6.4°
Sets 18:03:03 0° 49° (NE) 4,005 6.3 -6.9°
